Hourly Data Report for June 22, 2021

MIRAMICHI RCS
NEW BRUNSWICK
Current Station Operator: ECCC - MSC

47°00'34.000" N
65°27'54.000" W
33.00 m
8100989
71744
ACQ

Download Data

Hourly Data (June 2021)
Hourly Data Report for June 22, 2021
TIME
LST
Temp Definition
°C
Dew Point Definition
°C
Rel Hum Definition
%
Precip. Amount Definition
mm

Wind Dir Definition
10's deg

Wind Spd Definition
km/h
Visibility Definition
km
Stn Press Definition
kPa
Hmdx Definition


Wind Chill Definition


Weather Definition


00:00 22.0 19.5 86 LegendMM 20 22   99.80 29   LegendNANA
01:00 21.8 19.4 86 LegendMM 20 24   99.73 29   LegendNANA
02:00 21.5 19.2 87 LegendMM 20 22   99.75 28   LegendNANA
03:00 21.4 19.0 86 LegendMM 21 24   99.72 28   LegendNANA
04:00 21.3 19.0 87 LegendMM 20 20   99.68 28   LegendNANA
05:00 21.1 18.8 87 LegendMM 20 22   99.70 28   LegendNANA
06:00 21.1 18.8 87 LegendMM 21 16   99.71 28   LegendNANA
07:00 21.2 18.8 86 LegendMM 21 19   99.77 28   LegendNANA
08:00 21.4 18.8 85 LegendMM 21 23   99.80 28   LegendNANA
09:00 21.7 19.0 85 LegendMM 21 21   99.79 28   LegendNANA
10:00 21.4 19.4 88 LegendMM 22 18   99.83 28   LegendNANA
11:00 22.6 19.3 81 LegendMM 19 23   99.87 30   LegendNANA
12:00 23.2 19.6 80 LegendMM 23 23   99.84 30   LegendNANA
13:00 24.1 19.9 78 LegendMM 23 18   99.81 32   LegendNANA
14:00 25.9 20.6 72 LegendMM 24 18   99.80 34   LegendNANA
15:00 25.1 20.3 75 LegendMM 26 17   99.83 33   LegendNANA
16:00 25.3 20.0 72 LegendMM 23 16   99.82 33   LegendNANA
17:00 24.5 19.9 75 LegendMM 23 12   99.82 32   LegendNANA
18:00 23.7 18.0 70 LegendMM 31 9   99.89 30   LegendNANA
19:00 21.5 18.0 80 LegendMM 5 3   99.96 28   LegendNANA
20:00 20.2 18.6 90 LegendMM 10 7   99.98 27   LegendNANA
21:00 19.8 18.4 92 LegendMM 19 2   100.07     LegendNANA
22:00 19.2 17.5 90 LegendMM 4 8   100.08     LegendNANA
23:00 18.0 15.0 83 LegendMM 35 9   100.13     LegendNANA

Notes on Data Quality.

Legend

  • E = Estimated
  • M = Missing
  • NA = Not Available*
  • [empty] = Indicates an unobserved value
Date modified: